Regional Weather Roundup
Issued by NWS

Home | Current Version | Previous Version | Graphics & Text | Print | Product List | Glossary Off
Versions: 1 2 3 4 5 6 7 8 9 10 11 12 13 14 15 16 17 18 19 20 21 22 23 24 25 26 27 28 29 30 31 32 33 34 35 36 37 38 39 40 41 42 43 44 45 46 47 48 49 50

000
ASUS45 KTFX 010510
RWRMT
MONTANA REGIONAL WEATHER ROUNDUP
NATIONAL WEATHER SERVICE GREAT FALLS MT
1100 PM MDT TUE MAY 31 2016

NOTE: "FAIR" INDICATES FEW OR NO CLOUDS BELOW 12000 FEET WITH NO
SIGNIFICANT WEATHER AND/OR OBSTRUCTIONS TO VISIBILITY.

MTZ001>007-043-010600-
WEST OF THE DIVIDE

CITY           SKY/WX    TMP DP  RH WIND       PRES   REMARKS
KALISPELL      PTCLDY    50  45  83 CALM      30.06S
MISSOULA       CLEAR     57  37  47 CALM      30.09R
BUTTE          CLOUDY    49  33  54 S7        30.18R
MULLAN PASS    PTCLDY    50  30  46 N5        30.16S
ANACONDA         N/A     46  34  61 S5        30.15S
DEER LODGE       N/A     48  34  57 W5        30.15S
EUREKA           N/A     54  39  58 CALM      30.05S
HAMILTON         N/A     52  39  62 S5        30.09R
LIBBY            N/A     55  39  54 SE3       30.06S
$$

MTZ008-052>055-010600-
SOUTHWEST MONTANA

CITY           SKY/WX    TMP DP  RH WIND       PRES   REMARKS
BOZEMAN        CLEAR     49  36  61 S10       30.16R
DILLON         CLEAR     49  34  56 E8        30.15R
W YELLOWSTONE  CLEAR     43  30  61 N5        30.21S
ENNIS          CLEAR     41  36  81 S5        30.23R
$$

MTZ009-010-012-014-046-048-049-054-010600-
EAST SLOPES AND CENTRAL MONTANA

CITY           SKY/WX    TMP DP  RH WIND       PRES   REMARKS
CUT BANK         N/A     49  35  58 SE7       30.12S
GREAT FALLS    CLEAR     49  37  63 E8        30.15R
MALMSTROM AFB  CLEAR     46  39  77 SE6       30.14S
HELENA         CLEAR     52  35  52 W5        30.12F
CHOTEAU          N/A     50  37  62 SE6       30.15F
$$

MTZ011-013-016-021-045-047-050-051-010600-
NORTH CENTRAL MONTANA

CITY           SKY/WX    TMP DP  RH WIND       PRES   REMARKS
HAVRE          CLEAR     44  41  89 S8        30.11S
LEWISTOWN      CLEAR     44  39  82 S8        30.17S
N BAR RANCH      N/A     43  37  81 NW12      30.17S
CHINOOK          N/A     50  46  87 SW5       30.11S
$$

MTZ017>020-022>027-061-062-010600-
NORTHEAST MONTANA

CITY           SKY/WX    TMP DP  RH WIND       PRES   REMARKS
GLASGOW        CLOUDY    54  47  77 NW8       30.06R
JORDAN           N/A     49  46  90 NW8       30.09R
SIDNEY         CLOUDY    53  50  89 NW9       29.99S
WOLF POINT     CLOUDY    53  49  86 W6        30.03S
PLENTYWOOD       N/A     52  48  87 N14       30.00R
POPLAR           N/A     48  46  93 NW7       30.03S
$$

MTZ028>42-056>058-010600-
SOUTHCENTRAL AND SOUTHEAST MONTANA

CITY           SKY/WX    TMP DP  RH WIND       PRES   REMARKS
BAKER          CLOUDY    50  49  96 W13       30.04S
BILLINGS       PTCLDY    53  39  59 E5        30.16R
LIVINGSTON     CLEAR     48  33  56 E8        30.16S
MILES CITY     CLEAR     51  46  83 W9        30.08S
FORSYTH          N/A     52  45  76 W5        30.11S
$$

REGIONAL REPORTS...DAKOTAS

CITY           SKY/WX    TMP DP  RH WIND       PRES   REMARKS
WILLISTON      CLOUDY    51  44  77 N14       29.97S
MINOT          LGT RAIN  51  47  86 NW23G31   29.82R
DICKINSON      LGT RAIN  48  46  93 NW17      29.93R
BEACH          MOCLDY    48  48 100 NW13      30.03S
CROSBY         CLOUDY    46  46 100 N17G25    29.98R
WATFORD CITY   CLOUDY    50  48  93 NW10      29.96R
BISMARCK       CLOUDY    51  48  89 NW20G29   29.83R
GRAND FORKS    HVY RAIN  53  51  93 N3        29.62F FOG
FARGO          CLOUDY    59  52  77 SW12      29.65R
BUFFALO SD       N/A     51  46  83 NW26G36   29.96S
RAPID CITY     CLEAR     44  38  79 NW8       30.07S
$$

REGIONAL REPORTS...WYOMING/IDAHO/WASHINGTON

CITY           SKY/WX    TMP DP  RH WIND       PRES   REMARKS
GILLETTE       CLEAR     38  36  92 W6        30.16R
SHERIDAN       PTCLDY    46  39  76 SE3       30.16R
BUFFALO WY     PTCLDY    48  38  68 NW8       30.18S
CODY           CLEAR     48  36  61 CALM      30.19R
YELLOWSTONE LA   N/A     36  28  73 CALM      30.27R
IDAHO FALLS    CLEAR     50  38  63 SW5       30.11R
SALMON         CLEAR     54  36  50 SE5       30.06S
BOISE          CLEAR     66  30  26 CALM      30.01R
SPOKANE        MOCLDY    68  36  30 S6        30.02F
$$

REGIONAL REPORTS...ALBERTA

CITY           SKY/WX    TMP DP  RH WIND       PRES   REMARKS
EDMONTON       CLEAR     52  39  62 S7        30.01F
CALGARY        MOCLDY    55  36  47 SE10G20   30.05S
LETHBRIDGE     PTCLDY    46  41  81 S12G30    30.07F
MEDICINE HAT   CLEAR     50  46  87 S3        30.08F
$$

REGIONAL REPORTS...SASKATCHEWAN

CITY           SKY/WX    TMP DP  RH WIND       PRES   REMARKS
SWIFT CURRENT  CLOUDY    52  48  87 W6        30.05S
REGINA         PTCLDY    48  46  93 NE5       30.02R
SASKATOON      MOCLDY    52  45  76 NE2       30.05S
$$



USA.gov is the U.S. government's official web portal to all federal, state and local government web resources and services.